Location: Asheville, NC
(35.6000°N, 82.5500°W)
Time: 13:59:48
(UTC-04:00)

NO-84 - Pass Details

Date: 16 March 2018
Orbit: 334 x 555 km, 55.0° (Epoch: 14 June)

Event Time Altitude Azimuth Distance (km) Brightness Sun altitude
Rises 21:22:35 0° 206° (SSW) 2,673 ? -21.7°
Reaches altitude 10° 21:24:50 10° 200° (SSW) 1,809 ? -22.2°
Enters shadow 21:26:21 21° 190° (S) 1,266 ? -22.5°
